Time,TemperatureF,DewpointF,PressureIn,WindDirection,WindDirectionDegrees,WindSpeedMPH,WindSpeedGustMPH,Humidity,HourlyPrecipIn,Conditions,Clouds,dailyrainin,SoftwareType,DateUTC
2013-03-25 00:03:00,27.0,26.0,-100.00,NNW,340,20.0,24.0,95,0.00,,,-99.99,,2013-03-25 05:03:00,
2013-03-25 00:12:00,27.0,26.0,-100.00,NNW,340,20.0,24.0,95,0.00,,,-99.99,,2013-03-25 05:12:00,
2013-03-25 00:22:00,27.0,26.0,-100.00,NNW,340,20.0,24.0,95,0.00,,,-99.99,,2013-03-25 05:22:00,
2013-03-25 00:32:00,27.0,26.0,-100.00,NNW,340,20.0,24.0,95,0.00,,,-99.99,,2013-03-25 05:32:00,
2013-03-25 01:22:00,25.0,24.0,-100.00,North,350,26.0,29.0,95,0.04,,,-99.99,,2013-03-25 06:22:00,
2013-03-25 01:33:00,25.0,23.0,-100.00,NNW,345,21.0,29.0,95,0.04,,,-99.99,,2013-03-25 06:33:00,
2013-03-25 01:42:00,25.0,23.0,-100.00,NNW,345,21.0,29.0,95,0.04,,,-99.99,,2013-03-25 06:42:00,
2013-03-25 01:52:00,25.0,23.0,-100.00,NNW,345,21.0,29.0,95,0.04,,,-99.99,,2013-03-25 06:52:00,
2013-03-25 02:02:00,25.0,23.0,-100.00,NNW,345,21.0,29.0,95,0.04,,,-99.99,,2013-03-25 07:02:00,
2013-03-25 02:12:00,25.0,23.0,-100.00,NNW,345,21.0,29.0,95,0.04,,,-99.99,,2013-03-25 07:12:00,
2013-03-25 07:33:00,24.0,23.0,-100.00,NNW,345,19.0,24.0,95,0.00,,,-99.99,,2013-03-25 12:33:00,
2013-03-25 07:43:00,24.0,23.0,-100.00,NNW,345,19.0,24.0,95,0.00,,,-99.99,,2013-03-25 12:43:00,
2013-03-25 07:53:00,24.0,23.0,-100.00,NNW,345,19.0,24.0,95,0.00,,,-99.99,,2013-03-25 12:53:00,
2013-03-25 08:02:00,24.0,23.0,-100.00,NNW,345,19.0,24.0,95,0.00,,,-99.99,,2013-03-25 13:02:00,
2013-03-25 08:13:00,24.0,23.0,-100.00,NNW,345,19.0,24.0,95,0.00,,,-99.99,,2013-03-25 13:13:00,
2013-03-25 09:53:00,25.0,22.0,-100.00,NNW,345,21.0,26.0,88,0.00,,,-99.99,,2013-03-25 14:53:00,
2013-03-25 10:02:00,25.0,22.0,-100.00,NNW,345,21.0,26.0,88,0.00,,,-99.99,,2013-03-25 15:02:00,
2013-03-25 10:13:00,25.0,22.0,-100.00,NNW,345,21.0,26.0,88,0.00,,,-99.99,,2013-03-25 15:13:00,
2013-03-25 10:23:00,25.0,22.0,-100.00,NNW,345,21.0,26.0,88,0.00,,,-99.99,,2013-03-25 15:23:00,
2013-03-25 10:32:00,25.0,22.0,-100.00,NNW,345,21.0,26.0,88,0.00,,,-99.99,,2013-03-25 15:32:00,
2013-03-25 10:53:00,27.0,23.0,-100.00,North,350,20.0,24.0,84,0.00,,,-99.99,,2013-03-25 15:53:00,
2013-03-25 11:03:00,27.0,23.0,-100.00,North,355,21.0,25.0,82,0.00,,,-99.99,,2013-03-25 16:03:00,
2013-03-25 11:12:00,27.0,23.0,-100.00,North,355,21.0,25.0,82,0.00,,,-99.99,,2013-03-25 16:12:00,
2013-03-25 11:23:00,28.0,23.0,-100.00,North,355,22.0,26.0,81,0.00,,,-99.99,,2013-03-25 16:23:00,
2013-03-25 11:33:00,28.0,23.0,-100.00,North,355,22.0,26.0,81,0.00,,,-99.99,,2013-03-25 16:33:00,
2013-03-25 11:43:00,28.0,23.0,-100.00,North,355,22.0,26.0,81,0.00,,,-99.99,,2013-03-25 16:43:00,
2013-03-25 11:53:00,28.0,23.0,-100.00,North,355,22.0,26.0,81,0.00,,,-99.99,,2013-03-25 16:53:00,
2013-03-25 12:02:00,29.0,23.0,-100.00,NNW,345,21.0,26.0,79,0.00,,,-99.99,,2013-03-25 17:02:00,
2013-03-25 12:12:00,28.0,23.0,-100.00,North,355,21.0,25.0,78,0.00,,,-99.99,,2013-03-25 17:12:00,
2013-03-25 12:23:00,28.0,23.0,-100.00,North,355,21.0,25.0,78,0.00,,,-99.99,,2013-03-25 17:23:00,
2013-03-25 12:33:00,30.0,24.0,-100.00,NNW,340,17.0,26.0,77,0.00,,,-99.99,,2013-03-25 17:33:00,
2013-03-25 12:42:00,30.0,23.0,-100.00,NNW,345,20.0,25.0,76,0.00,,,-99.99,,2013-03-25 17:42:00,
2013-03-25 12:52:00,29.0,22.0,-100.00,NNW,340,22.0,25.0,75,0.00,,,-99.99,,2013-03-25 17:52:00,
2013-03-25 13:03:00,30.0,23.0,-100.00,NNW,345,22.0,26.0,75,0.00,,,-99.99,,2013-03-25 18:03:00,
2013-03-25 13:12:00,30.0,22.0,-100.00,NNW,340,23.0,26.0,74,0.00,,,-99.99,,2013-03-25 18:12:00,
2013-03-25 13:22:00,30.0,23.0,-100.00,NNW,345,21.0,28.0,74,0.00,,,-99.99,,2013-03-25 18:22:00,
2013-03-25 13:33:00,30.0,23.0,-100.00,North,350,21.0,25.0,72,0.00,,,-99.99,,2013-03-25 18:33:00,
2013-03-25 13:42:00,31.0,23.0,-100.00,North,355,22.0,25.0,71,0.00,,,-99.99,,2013-03-25 18:42:00,
2013-03-25 13:52:00,31.0,23.0,-100.00,North,355,22.0,25.0,71,0.00,,,-99.99,,2013-03-25 18:52:00,
2013-03-25 14:03:00,30.0,22.0,-100.00,NNW,345,21.0,26.0,71,0.00,,,-99.99,,2013-03-25 19:03:00,
2013-03-25 14:12:00,31.0,23.0,-100.00,NNW,340,20.0,26.0,71,0.00,,,-99.99,,2013-03-25 19:12:00,
2013-03-25 14:22:00,31.0,23.0,-100.00,NNW,340,20.0,26.0,71,0.00,,,-99.99,,2013-03-25 19:22:00,
2013-03-25 14:33:00,31.0,23.0,-100.00,NNW,340,20.0,26.0,71,0.00,,,-99.99,,2013-03-25 19:33:00,
2013-03-25 14:42:00,31.0,23.0,-100.00,NNW,340,20.0,26.0,71,0.00,,,-99.99,,2013-03-25 19:42:00,
2013-03-25 14:52:00,31.0,23.0,-100.00,NNW,340,20.0,26.0,71,0.00,,,-99.99,,2013-03-25 19:52:00,
2013-03-25 15:32:00,32.0,23.0,-100.00,NNW,335,21.0,24.0,68,0.00,,,-99.99,,2013-03-25 20:32:00,
2013-03-25 15:42:00,32.0,23.0,-100.00,NNW,335,17.0,24.0,68,0.00,,,-99.99,,2013-03-25 20:42:00,
2013-03-25 15:52:00,32.0,23.0,-100.00,NNW,340,19.0,23.0,67,0.00,,,-99.99,,2013-03-25 20:52:00,
2013-03-25 16:02:00,32.0,22.0,-100.00,NNW,335,17.0,24.0,66,0.00,,,-99.99,,2013-03-25 21:02:00,
2013-03-25 16:12:00,32.0,22.0,-100.00,NNW,335,18.0,25.0,65,0.00,,,-99.99,,2013-03-25 21:12:00,
2013-03-25 16:22:00,33.0,22.0,-100.00,NNW,340,17.0,23.0,65,0.00,,,-99.99,,2013-03-25 21:22:00,
2013-03-25 16:33:00,33.0,22.0,-100.00,NNW,340,17.0,23.0,65,0.00,,,-99.99,,2013-03-25 21:33:00,
2013-03-25 16:42:00,32.0,22.0,-100.00,NNW,335,18.0,22.0,65,0.00,,,-99.99,,2013-03-25 21:42:00,
2013-03-25 16:52:00,33.0,22.0,-100.00,NNW,330,17.0,21.0,65,0.00,,,-99.99,,2013-03-25 21:52:00,
2013-03-25 17:03:00,33.0,22.0,-100.00,NNW,330,17.0,21.0,65,0.00,,,-99.99,,2013-03-25 22:03:00,
2013-03-25 17:12:00,33.0,22.0,-100.00,NNW,330,17.0,21.0,65,0.00,,,-99.99,,2013-03-25 22:12:00,
2013-03-25 17:23:00,32.0,22.0,-100.00,NNW,340,19.0,21.0,65,0.00,,,-99.99,,2013-03-25 22:23:00,
2013-03-25 17:33:00,32.0,22.0,-100.00,NNW,340,19.0,21.0,65,0.00,,,-99.99,,2013-03-25 22:33:00,
2013-03-25 17:42:00,32.0,22.0,-100.00,NNW,340,19.0,21.0,65,0.00,,,-99.99,,2013-03-25 22:42:00,
2013-03-25 17:52:00,31.0,22.0,-100.00,NNW,330,18.0,22.0,67,0.00,,,-99.99,,2013-03-25 22:52:00,
2013-03-25 18:03:00,32.0,22.0,-100.00,NNW,335,16.0,22.0,67,0.00,,,-99.99,,2013-03-25 23:03:00,
2013-03-25 18:12:00,31.0,22.0,-100.00,NNW,340,18.0,22.0,67,0.00,,,-99.99,,2013-03-25 23:12:00,
2013-03-25 18:23:00,31.0,22.0,-100.00,NNW,330,19.0,22.0,67,0.00,,,-99.99,,2013-03-25 23:23:00,
2013-03-25 18:32:00,31.0,22.0,-100.00,NNW,335,18.0,22.0,68,0.00,,,-99.99,,2013-03-25 23:32:00,
2013-03-25 18:42:00,31.0,22.0,-100.00,NNW,335,18.0,22.0,68,0.00,,,-99.99,,2013-03-25 23:42:00,
2013-03-25 18:52:00,31.0,22.0,-100.00,NNW,335,18.0,23.0,68,0.00,,,-99.99,,2013-03-25 23:52:00,
2013-03-25 19:02:00,30.0,22.0,-100.00,NNW,340,17.0,22.0,69,0.00,,,-99.99,,2013-03-26 00:02:00,
2013-03-25 19:12:00,30.0,22.0,-100.00,NNW,340,16.0,22.0,69,0.00,,,-99.99,,2013-03-26 00:12:00,
2013-03-25 19:22:00,30.0,22.0,-100.00,NNW,340,14.0,21.0,69,0.00,,,-99.99,,2013-03-26 00:22:00,
2013-03-25 19:32:00,30.0,21.0,-100.00,NNW,345,17.0,21.0,69,0.00,,,-99.99,,2013-03-26 00:32:00,
2013-03-25 19:42:00,30.0,21.0,-100.00,NNW,340,17.0,21.0,69,0.00,,,-99.99,,2013-03-26 00:42:00,
2013-03-25 19:52:00,29.0,21.0,-100.00,NNW,345,17.0,19.0,69,0.00,,,-99.99,,2013-03-26 00:52:00,
2013-03-25 20:02:00,29.0,21.0,-100.00,NNW,345,17.0,21.0,70,0.00,,,-99.99,,2013-03-26 01:02:00,
2013-03-25 20:12:00,29.0,21.0,-100.00,NNW,340,16.0,19.0,71,0.00,,,-99.99,,2013-03-26 01:12:00,
2013-03-25 20:22:00,29.0,21.0,-100.00,NNW,340,17.0,21.0,71,0.00,,,-99.99,,2013-03-26 01:22:00,
2013-03-25 20:32:00,29.0,21.0,-100.00,NNW,340,15.0,21.0,71,0.00,,,-99.99,,2013-03-26 01:32:00,
2013-03-25 20:42:00,29.0,21.0,-100.00,NNW,340,15.0,21.0,71,0.00,,,-99.99,,2013-03-26 01:42:00,
2013-03-25 20:52:00,29.0,21.0,-100.00,NNW,345,18.0,21.0,71,0.00,,,-99.99,,2013-03-26 01:52:00,
2013-03-25 21:02:00,28.0,21.0,-100.00,NNW,345,16.0,19.0,72,0.00,,,-99.99,,2013-03-26 02:02:00,
2013-03-25 21:12:00,28.0,21.0,-100.00,North,350,14.0,17.0,74,0.00,,,-99.99,,2013-03-26 02:12:00,
2013-03-25 21:22:00,28.0,21.0,-100.00,North,350,16.0,19.0,74,0.00,,,-99.99,,2013-03-26 02:22:00,
2013-03-25 21:32:00,28.0,21.0,-100.00,North,355,17.0,21.0,74,0.00,,,-99.99,,2013-03-26 02:32:00,
2013-03-25 21:42:00,27.0,20.0,-100.00,North,350,17.0,22.0,73,0.00,,,-99.99,,2013-03-26 02:42:00,
2013-03-25 21:52:00,27.0,20.0,-100.00,North,355,16.0,20.0,73,0.00,,,-99.99,,2013-03-26 02:52:00,
2013-03-25 22:02:00,26.0,19.0,-100.00,North,355,15.0,19.0,73,0.00,,,-99.99,,2013-03-26 03:02:00,
2013-03-25 22:12:00,26.0,19.0,-100.00,North,355,15.0,19.0,73,0.00,,,-99.99,,2013-03-26 03:12:00,
2013-03-25 22:22:00,26.0,19.0,-100.00,North,350,15.0,19.0,75,0.00,,,-99.99,,2013-03-26 03:22:00,
2013-03-25 22:33:00,25.0,19.0,-100.00,North,350,15.0,18.0,75,0.00,,,-99.99,,2013-03-26 03:33:00,
2013-03-25 22:42:00,25.0,18.0,-100.00,North,350,15.0,19.0,75,0.00,,,-99.99,,2013-03-26 03:42:00,
2013-03-25 22:53:00,25.0,18.0,-100.00,NNW,345,16.0,19.0,75,0.00,,,-99.99,,2013-03-26 03:53:00,
2013-03-25 23:03:00,24.0,18.0,-100.00,NNW,345,13.0,16.0,76,0.00,,,-99.99,,2013-03-26 04:03:00,
2013-03-25 23:12:00,24.0,18.0,-100.00,NNW,345,12.0,16.0,77,0.00,,,-99.99,,2013-03-26 04:12:00,
2013-03-25 23:23:00,24.0,18.0,-100.00,NNW,345,12.0,16.0,77,0.00,,,-99.99,,2013-03-26 04:23:00,
2013-03-25 23:32:00,23.0,18.0,-100.00,NNW,340,9.0,11.0,80,0.00,,,-99.99,,2013-03-26 04:32:00,
2013-03-25 23:43:00,22.0,18.0,-100.00,NNW,340,8.0,11.0,81,0.00,,,-99.99,,2013-03-26 04:43:00,
2013-03-25 23:52:00,22.0,17.0,-100.00,NNW,335,9.0,9.0,82,0.00,,,-99.99,,2013-03-26 04:52:00,